Location: Godiavel Galaoual
(15.2485°N, 12.6604°W)
Time: 13:26:17
(UTC+00:00)

AO-7 - Visible Passes

Search period start: 31 July 2021 00:00
Search period end: 10 August 2021 00:00
Orbit: 1440 x 1458 km, 101.9° (Epoch: 31 July)

Date Brightness Start Highest point End Pass type
(mag) Time Alt. Az. Time Alt. Az. Time Alt. Az.
31 Jul ? 03:50:19 10° NE 03:57:41 34° ESE 04:03:36 15° SSE visible
31 Jul ? 05:42:46 10° N 05:50:05 35° WNW 05:57:25 10° SW visible
01 Aug ? 04:42:07 10° NNE 04:50:31 85° ESE 04:57:29 16° SSW visible
02 Aug ? 03:43:37 10° NE 03:50:39 30° ESE 03:56:27 14° SSE visible
02 Aug ? 05:35:33 10° N 05:43:07 40° WNW 05:50:43 10° SW visible
03 Aug ? 04:35:08 10° NNE 04:43:31 76° ESE 04:50:19 17° S visible
04 Aug ? 03:36:58 10° NE 03:43:37 26° ESE 03:49:18 13° SSE visible
04 Aug ? 05:28:21 10° N 05:36:09 45° WNW 05:43:57 10° SW visible
05 Aug ? 04:28:11 10° NNE 04:36:30 68° ESE 04:43:11 17° S visible
06 Aug ? 03:30:24 10° NE 03:36:34 23° ESE 03:42:09 12° SSE visible
06 Aug ? 05:21:12 10° N 05:29:10 51° WNW 05:37:04 10° SW visible
07 Aug ? 04:21:16 10° NNE 04:29:29 60° ESE 04:36:02 17° S visible
08 Aug ? 03:23:56 10° ENE 03:29:32 20° ESE 03:35:01 10° SE visible
08 Aug ? 05:14:04 10° N 05:22:12 58° WNW 05:29:56 11° SSW visible
09 Aug ? 04:14:22 10° NNE 04:22:27 53° ESE 04:28:55 17° S visible
09 Aug ? 06:08:35 10° NNW 06:14:37 23° WNW 06:20:40 10° WSW visible
